Location: Piotrkow Trybunalski
(51.4000°N, 19.6830°E)
Time: 16:05:03
(UTC+01:00)

Vanguard 2 - Pass Details

Date: 07 February 2023
Orbit: 553 x 2927 km, 32.9° (Epoch: 24 March)

Event Time Altitude Azimuth Distance (km) Brightness Sun altitude
Rises 18:47:17 0° 194° (SSW) 4,635 11.7 -19.9°
Reaches altitude 10° 18:51:34 10° 175° (S) 4,083 11.1 -20.6°
Maximum altitude 18:58:07 17° 139° (SE) 4,090 10.8 -21.6°
Enters shadow 18:59:47 17° 131° (SE) 4,249 10.8 -21.8°
Drops below altitude 10° 19:06:12 10° 106° (ESE) 5,235 - -22.8°
Sets 19:12:56 0° 91° (E) 6,576 - -23.9°
